Zurück zum Katalog

FENGYUN 1C DEB

LostSSO
NORAD 36270·DEBRIS·🇨🇳 China

Gestartet May 10, 1999 von Taiyuan Satellite Launch Center

Loading…

Nächste Überflüge (nächste 24 Stunden)

TLE

VeraltetSource: Space-Track

Epoche: May 19, 2024, 05:56 UTC

1 36270U 99025DWX 24140.24790641  .00014303  00000-0  57102-2 0  9995
2 36270  98.9989 249.7404 0059485 315.7308  43.9122 14.27595966854316

Verfolge FENGYUN 1C DEB in Echtzeit mit AllMySat

Download on the App Store